Theta_e
325 325 325 326 326 326 326 325 325 325 326 325 325 325 325 325 325 325 325 325 325 326 326 326 326 326 326 326 326 326 323 313 311 310 305 306 313 328 331 336 336 335 327 301 302 302 300 299 303 299 302 300 302 303 303 301 298 298 295 288 290 287 287 289 290 290 291 290 291 289 291 295 292 293 297 296 296 294 296 298 298 301 307 311 312 314 314 313
325 325 325 325 326 326 325 325 325 325 325 325 325 325 325 324 324 323 324 324 325 325 324 325 326 325 326 325 325 324 317 314 311 308 307 320 330 335 338 337 337 334 314 303 301 297 299 300 299 298 301 300 301 301 301 301 299 293 289 290 291 287 291 292 291 291 292 296 291 291 288 293 294 293 294 295 294 294 296 296 295 299 300 308 312 311 314 318
325 325 325 325 325 326 325 325 325 324 324 324 324 324 324 324 323 323 323 323 324 324 325 324 325 326 325 325 325 324 313 307 303 301 306 327 337 338 337 335 337 332 305 303 297 298 300 300 297 298 295 296 296 300 297 299 299 293 293 292 287 291 291 290 290 291 290 290 290 291 289 291 294 293 294 296 292 292 295 294 295 296 298 302 306 312 317 320
325 325 325 325 325 325 325 325 324 324 324 324 324 324 323 323 322 322 323 323 323 323 325 324 323 324 324 325 324 316 309 301 297 299 302 324 338 339 337 336 334 326 301 299 297 298 297 298 296 298 297 295 294 297 298 298 300 296 293 289 293 290 293 293 289 289 288 289 290 290 288 292 292 292 295 292 294 293 293 292 298 297 297 299 309 313 318 320
325 325 325 324 324 324 324 324 323 324 324 323 323 323 322 322 321 322 322 322 323 323 324 324 324 324 325 325 322 315 304 292 296 301 310 335 340 339 337 337 330 309 304 298 300 297 298 298 296 294 296 294 295 296 293 295 295 292 293 291 290 289 293 293 289 288 288 288 290 288 293 293 292 293 291 293 293 292 295 297 295 297 298 302 310 313 318 319
324 324 324 324 324 323 323 323 323 323 323 323 323 322 321 321 321 321 322 322 322 322 323 324 324 324 325 323 313 309 302 291 300 306 321 334 337 337 335 333 325 303 301 300 298 297 301 300 300 299 293 294 294 295 293 292 294 296 291 288 289 289 292 291 288 288 288 289 290 290 293 292 293 293 288 292 295 293 292 294 293 294 297 307 312 314 317 318
324 323 323 323 323 322 322 322 323 323 323 323 322 321 320 320 320 321 321 321 322 322 323 324 325 325 324 320 312 305 297 297 302 310 330 335 335 335 332 327 317 302 301 300 299 300 296 296 297 293 290 289 291 291 292 293 291 290 293 289 292 289 292 289 291 287 286 290 290 291 291 292 291 294 290 290 294 293 292 291 292 292 310 312 312 313 316 317
323 322 322 321 321 322 322 322 323 323 323 322 321 320 320 319 319 320 320 321 321 322 323 324 324 324 322 308 303 300 301 297 303 310 328 333 327 323 314 306 304 304 302 301 299 296 295 296 297 292 291 293 292 293 294 294 293 292 291 290 290 289 290 288 286 285 286 289 289 290 293 292 290 291 289 291 294 294 292 295 302 307 309 312 312 312 314 316
322 321 321 320 321 321 322 322 322 322 322 321 320 319 319 319 319 319 319 320 321 321 322 323 323 323 323 304 299 295 296 305 305 310 312 316 316 311 309 307 304 303 299 299 298 298 299 294 293 294 294 291 293 293 291 294 292 290 291 289 290 291 290 289 289 288 288 289 288 292 290 291 290 290 293 294 292 290 289 299 302 305 308 309 310 312 313 314
322 321 320 320 320 321 321 321 321 321 321 320 320 319 319 318 318 318 319 319 320 321 322 322 323 322 309 301 297 291 299 307 312 307 306 311 310 309 307 307 302 301 302 300 297 297 299 295 296 295 293 292 293 292 290 293 291 289 288 289 290 290 290 289 291 290 289 291 289 291 290 292 292 291 291 291 290 289 296 299 299 302 304 306 309 311 313 313
321 321 320 319 320 321 322 321 321 321 320 319 319 319 318 318 317 318 318 319 320 320 322 322 323 318 306 298 295 291 305 311 310 306 304 307 306 306 306 306 302 303 301 300 299 297 299 297 296 296 299 294 292 290 290 292 290 290 290 289 289 288 289 289 289 290 290 294 288 290 290 291 292 291 292 293 291 290 294 296 300 298 301 304 306 310 312 313
321 321 320 320 320 321 321 321 320 320 320 319 318 319 317 317 317 317 318 318 319 320 322 322 321 308 299 298 295 296 303 311 309 306 305 305 305 305 304 305 302 303 302 299 301 302 296 296 297 295 293 295 292 291 292 291 291 289 291 291 288 286 292 289 292 291 290 293 291 290 291 291 291 291 291 290 288 292 292 294 296 299 299 300 303 306 309 312
321 320 320 320 320 320 320 320 319 320 319 318 318 318 317 316 317 317 318 318 319 321 321 321 314 306 301 295 298 301 307 308 308 306 306 305 304 303 304 304 304 301 302 302 300 302 297 298 297 297 296 293 290 291 292 291 288 290 288 287 288 288 286 291 288 290 292 292 290 290 288 286 287 293 293 289 288 290 293 293 293 294 294 295 297 303 307 308
320 320 320 320 320 319 320 319 318 318 318 317 318 317 316 316 317 317 318 318 320 321 321 319 308 300 297 292 300 307 306 309 306 307 306 307 305 306 303 303 302 301 303 303 301 299 299 298 298 295 296 294 293 297 294 288 288 292 288 286 283 287 285 289 289 289 292 292 288 290 288 285 284 286 287 286 289 293 293 292 290 290 290 292 294 297 303 305
319 319 319 319 319 319 318 318 317 318 317 317 317 317 316 316 317 317 317 317 319 321 320 316 305 299 293 295 301 306 320 306 305 306 306 305 302 303 303 303 302 302 302 303 302 301 300 301 300 295 295 293 295 292 287 284 283 283 288 285 284 285 285 286 289 287 291 292 289 291 286 288 289 290 287 288 288 290 293 292 291 290 290 290 290 293 295 298
319 319 319 319 319 318 318 318 317 317 317 317 316 316 316 316 316 317 318 318 320 320 313 308 305 295 290 291 303 318 306 304 304 305 305 305 304 305 302 301 302 300 301 301 300 299 298 300 295 293 293 293 291 288 285 287 284 282 284 281 284 283 283 286 291 287 288 292 291 290 287 284 289 290 289 287 287 289 291 290 290 290 290 290 291 291 293 294
319 319 319 319 319 318 318 317 317 317 317 316 316 316 316 316 316 318 320 318 314 312 307 302 304 298 290 299 306 303 301 304 305 306 305 305 305 302 302 302 301 299 300 300 300 301 297 296 293 293 291 290 286 289 286 283 281 287 281 282 282 283 283 285 288 290 289 290 290 289 288 285 289 288 286 286 290 290 291 291 291 291 291 292 292 291 292 292
319 319 318 318 319 318 318 317 317 317 316 316 314 314 312 316 318 318 314 310 309 309 305 304 299 294 293 298 295 297 302 303 306 305 304 303 301 301 299 298 299 298 299 299 298 297 296 293 292 292 289 288 289 288 286 282 286 284 284 283 285 283 282 284 287 288 289 288 289 288 287 290 291 292 292 291 289 290 291 292 292 292 292 292 292 292 292 293
319 318 318 318 318 318 317 317 316 316 316 316 316 317 318 317 308 303 303 298 295 292 291 295 291 285 285 292 297 302 304 305 304 304 304 305 303 300 300 299 298 299 295 293 295 295 293 293 292 289 287 285 288 288 289 286 286 286 286 285 282 284 285 284 283 283 288 289 288 286 289 290 290 291 293 292 289 290 291 290 290 291 292 292 292 292 292 293
319 318 318 318 318 317 316 316 316 316 316 313 312 308 297 294 295 296 299 297 290 289 291 296 292 291 297 295 299 304 305 304 302 301 305 304 302 301 298 298 297 295 294 293 294 294 291 289 287 286 289 289 290 288 287 285 288 287 284 282 283 282 284 283 284 286 286 288 288 286 286 286 289 291 292 293 292 291 291 292 293 293 294 294 294 294 293 292
318 318 318 318 318 317 316 316 316 316 315 309 309 295 289 292 288 286 291 294 293 292 292 294 292 294 297 301 301 300 300 299 300 302 305 306 303 301 296 296 294 292 289 290 293 293 293 288 287 288 289 290 288 285 287 287 286 288 285 285 283 284 285 286 288 286 286 289 286 283 285 289 290 292 292 292 290 292 293 293 293 294 294 294 294 294 293 294
318 318 318 318 317 317 316 316 316 316 313 307 303 292 290 291 293 295 293 289 292 293 293 294 295 299 301 301 302 300 298 295 299 301 305 304 300 298 293 293 290 292 291 290 290 291 288 288 288 288 286 286 284 285 285 286 285 282 285 283 284 283 282 285 286 287 287 288 285 283 286 290 291 292 293 292 293 294 293 293 295 294 295 295 294 293 292 291
318 318 318 317 317 317 316 316 316 314 308 306 301 296 294 297 301 300 293 289 290 293 295 294 294 294 299 300 302 302 296 292 294 298 302 302 298 296 293 292 290 289 290 291 290 286 286 286 289 287 287 289 284 285 286 285 284 283 282 283 282 282 285 286 286 287 286 287 289 286 286 290 291 289 289 292 293 292 290 290 292 293 294 295 295 293 293 293
317 317 317 317 317 316 316 316 315 309 305 305 299 296 301 303 298 295 289 287 287 292 296 296 295 296 297 299 302 298 295 294 295 297 301 300 297 295 294 289 289 290 290 288 290 290 287 288 287 286 288 290 287 285 287 286 285 285 284 282 282 284 284 282 285 284 283 284 283 284 286 287 283 285 289 286 282 284 286 286 288 291 292 293 292 292 293 294
317 317 317 316 316 316 315 315 307 304 306 304 301 300 302 303 300 293 287 284 283 289 294 295 298 298 301 306 303 299 295 294 295 298 301 300 293 294 293 290 291 288 289 287 288 289 288 288 286 288 287 287 287 285 285 287 283 286 284 284 284 285 285 284 285 284 281 285 282 283 284 278 278 280 282 285 284 287 285 288 290 289 287 286 288 291 292 293
317 317 316 316 316 316 316 306 304 305 303 301 302 300 302 300 301 296 287 280 280 283 290 289 299 294 305 298 300 297 296 294 297 298 301 298 300 295 293 291 290 290 286 288 289 286 286 288 287 289 288 286 287 286 286 287 283 284 286 285 284 285 285 285 284 284 281 282 284 281 282 277 280 283 285 284 284 288 289 287 290 289 288 287 288 290 291 291
317 316 316 316 316 316 306 299 307 304 298 298 302 299 297 300 298 293 287 277 277 284 285 290 292 293 300 297 298 296 287 288 300 298 299 301 298 298 293 288 288 288 288 288 287 286 287 287 286 287 287 286 285 284 286 287 285 285 284 283 285 286 286 285 284 282 280 280 285 280 278 278 279 285 284 282 284 287 288 290 291 290 287 286 287 288 290 291
317 316 316 316 316 313 302 305 304 299 296 301 299 304 299 297 296 289 281 271 270 288 286 286 292 298 299 297 295 291 290 296 293 296 297 299 298 294 291 288 290 290 288 288 283 286 287 286 286 286 285 285 287 285 286 287 285 284 284 285 285 286 283 282 283 281 281 282 282 278 285 281 278 282 282 282 288 286 287 289 289 288 288 287 288 288 287 287
317 316 316 316 315 311 307 305 303 299 300 300 301 303 299 295 289 287 278 270 283 281 296 289 300 298 294 296 292 290 292 293 290 293 297 297 297 295 289 287 288 287 287 287 286 287 289 288 288 289 288 286 285 285 284 288 288 285 284 285 283 283 282 282 281 283 280 279 275 280 282 277 279 280 282 281 286 286 289 290 288 287 287 288 289 289 287 286
317 316 316 316 311 307 302 303 302 302 302 303 303 302 300 292 289 282 274 267 287 281 287 289 291 289 291 291 288 289 292 291 292 295 295 294 295 293 291 291 290 289 289 288 286 286 288 290 291 288 287 286 286 286 284 286 287 287 285 289 285 282 281 280 279 278 278 275 276 277 278 279 277 281 283 285 285 286 285 285 284 285 288 289 288 289 290 291
316 316 316 314 306 305 303 297 301 301 302 303 303 302 295 288 282 275 267 278 285 285 285 286 285 291 291 289 288 286 288 287 294 294 292 294 292 291 291 291 290 286 285 284 285 285 288 288 289 287 286 285 287 287 287 286 286 287 285 282 286 284 280 278 273 276 273 271 273 277 278 278 276 277 282 283 284 283 288 290 289 286 288 289 289 290 292 291
316 316 316 311 308 308 302 299 303 304 303 304 305 298 291 282 282 276 273 287 281 282 283 283 283 288 291 290 287 287 289 288 290 291 292 288 288 289 289 287 288 281 282 282 282 284 287 288 286 289 288 288 287 289 286 286 284 286 285 287 281 274 271 275 271 275 273 271 278 278 278 279 280 282 286 285 286 286 284 286 288 287 288 289 288 289 288 289
316 315 315 311 309 305 304 305 306 305 304 303 301 292 286 280 274 281 278 281 279 283 283 285 283 286 288 287 285 286 287 289 289 290 288 288 289 288 288 288 288 286 281 282 283 283 284 283 287 289 290 289 289 287 284 285 284 284 286 282 278 272 270 268 266 265 269 273 277 279 279 278 280 282 288 290 290 287 286 285 287 287 288 289 288 287 287 288
316 315 310 309 308 307 306 306 306 306 304 302 296 288 283 276 277 289 282 280 282 282 282 281 284 285 289 287 286 289 286 285 289 289 290 287 288 286 288 287 286 286 283 282 284 283 278 280 285 288 287 290 289 287 290 287 286 286 283 286 283 275 270 269 266 273 274 273 274 275 275 275 277 285 285 286 288 286 285 285 285 285 285 286 286 286 287 288
315 312 309 309 308 307 306 306 307 307 304 299 290 287 280 279 283 281 282 281 279 282 283 286 287 285 285 282 285 287 286 285 287 288 287 287 285 286 287 288 286 283 285 285 283 281 283 280 284 285 287 286 290 289 287 287 286 284 281 283 281 281 277 270 265 266 264 269 271 274 276 277 282 284 286 286 286 286 286 285 285 287 286 286 287 288 289 289
311 308 309 306 306 306 305 306 307 307 303 295 288 283 281 284 280 284 284 284 283 282 282 284 281 285 281 282 283 285 288 286 288 287 286 287 287 287 288 288 288 288 288 286 283 280 280 282 284 284 286 287 289 287 288 288 285 285 284 279 281 281 279 272 269 272 271 269 272 269 277 281 281 284 290 284 283 286 286 285 286 286 285 289 290 289 289 291
307 307 303 305 306 307 307 307 308 306 300 293 286 281 286 286 285 285 289 287 284 287 285 282 282 282 281 281 283 284 286 287 286 285 284 287 286 286 286 288 289 289 290 289 283 284 283 281 284 285 287 289 287 286 286 285 286 285 280 283 283 282 282 279 275 267 264 269 272 271 276 278 277 281 282 282 285 287 285 286 286 285 286 289 292 291 292 293
305 305 305 304 306 308 307 308 308 304 297 290 284 289 287 286 285 286 285 285 286 284 282 283 281 283 282 281 281 284 284 285 285 285 284 286 284 289 287 287 287 291 290 287 288 285 286 280 284 284 286 288 285 289 289 288 286 284 281 285 285 280 278 277 274 269 267 266 266 269 272 274 277 281 281 284 285 288 287 285 285 287 288 290 291 291 290 290
305 303 297 304 308 309 308 309 307 302 295 287 284 286 286 286 285 285 288 290 288 285 285 280 281 282 282 282 282 284 286 282 284 284 283 283 283 286 291 289 286 288 289 287 287 283 286 281 280 286 285 287 287 287 284 286 287 285 286 284 285 281 275 275 277 271 273 267 264 269 268 279 278 280 279 285 283 286 286 283 287 287 287 288 290 292 292 293
302 298 296 306 309 310 309 309 303 299 292 284 285 285 285 284 284 285 288 292 286 285 282 282 280 281 282 281 284 284 284 284 285 284 284 285 286 286 288 290 289 288 289 288 286 288 285 282 275 284 285 286 285 285 285 286 283 282 283 282 285 280 282 281 277 275 275 267 265 265 269 273 278 280 282 287 286 285 285 286 285 286 286 287 289 292 292 293
303 298 296 306 308 310 309 304 297 292 290 291 289 285 283 285 284 286 288 286 287 286 284 283 283 283 281 282 282 284 283 282 284 284 284 284 286 284 288 291 290 288 287 288 288 287 284 282 279 282 282 283 283 284 284 286 288 287 285 283 287 281 279 276 277 276 268 272 267 263 274 275 280 280 286 286 285 284 284 284 286 286 286 286 287 287 288 290
298 291 294 307 309 309 302 293 293 295 291 288 286 285 285 294 286 286 287 287 285 285 285 285 284 282 282 285 285 284 283 282 283 284 284 284 287 286 285 290 290 292 291 287 288 286 285 282 283 278 282 285 285 285 284 284 285 285 285 285 287 284 281 274 275 275 271 274 270 267 267 279 282 281 282 284 281 280 280 282 284 284 284 285 286 287 286 287
297 294 304 307 309 306 298 291 292 292 290 287 285 284 285 286 284 285 287 287 288 286 286 286 285 284 283 283 284 285 286 283 284 285 285 286 285 287 285 290 291 292 293 286 288 285 290 282 279 278 279 281 284 285 285 283 286 287 286 283 284 285 282 280 272 275 279 270 271 269 267 279 280 281 280 279 278 280 281 281 283 283 284 288 289 290 288 287
295 295 298 306 308 305 295 286 286 289 290 287 286 287 285 287 285 285 286 286 287 286 286 284 285 286 284 282 284 285 286 280 283 284 283 284 286 286 286 289 293 291 292 289 290 292 285 283 284 274 273 278 279 285 285 285 286 282 283 283 282 280 279 278 277 273 273 275 275 276 270 280 284 282 283 282 283 284 285 285 282 285 291 290 289 288 288 289
295 295 297 301 305 303 292 293 290 289 290 286 285 285 287 286 286 287 287 287 285 284 286 285 286 285 284 284 285 286 288 287 279 285 285 282 286 285 285 288 292 291 291 291 295 294 288 284 284 278 276 275 273 274 278 282 284 283 278 280 284 286 281 281 278 275 274 272 277 271 275 282 284 283 288 286 284 287 286 285 283 284 288 290 289 288 288 289
287 285 292 296 300 298 297 294 292 291 289 287 285 284 285 285 287 285 287 288 286 285 285 286 284 286 284 286 284 285 286 286 284 282 285 283 282 284 285 287 290 291 291 294 292 292 281 282 286 285 283 281 283 285 285 285 283 282 283 283 284 286 284 284 280 276 280 276 277 280 282 284 282 283 284 288 282 287 288 287 288 289 287 286 286 287 288 289
291 285 287 287 295 295 293 294 289 291 289 291 285 285 284 283 285 287 288 287 287 287 286 286 286 287 284 286 285 284 287 287 282 283 284 285 281 283 285 285 288 290 293 291 292 287 280 283 284 285 286 286 287 283 283 289 285 286 284 283 284 285 284 284 282 282 282 277 274 281 283 283 285 282 284 286 286 283 286 289 290 289 290 290 289 286 289 287
284 289 292 293 288 286 288 289 292 289 289 291 286 286 285 284 284 283 287 287 289 288 288 288 286 288 288 287 285 282 283 284 284 282 283 283 283 285 285 286 286 289 291 289 290 286 283 283 285 283 284 285 282 282 284 285 286 285 285 284 283 284 283 283 284 286 282 282 281 286 285 283 286 286 288 288 288 289 290 291 292 291 288 287 286 288 288 288
291 288 290 296 287 288 291 292 293 288 288 291 288 286 283 285 284 285 285 286 288 288 287 283 286 286 287 287 287 282 284 282 282 283 281 282 283 280 280 284 287 286 287 286 287 282 285 280 283 283 284 284 282 282 283 285 283 283 284 284 285 284 284 286 286 287 284 285 287 287 285 284 288 287 290 290 290 290 288 286 286 289 290 288 286 288 288 288
286 286 285 291 289 287 290 292 292 290 286 290 287 285 285 285 285 285 287 285 283 286 288 287 287 286 286 287 288 285 286 288 288 285 283 283 280 282 284 283 282 285 286 285 287 285 287 280 286 281 279 281 282 281 282 283 283 281 281 284 284 285 285 286 287 287 286 285 287 287 284 284 289 287 289 290 289 288 288 288 289 290 289 287 288 289 289 289
293 293 293 286 285 286 289 291 289 288 286 287 286 286 284 285 285 286 286 288 286 286 287 288 287 286 286 286 287 288 289 290 289 290 289 289 286 288 288 285 288 285 285 284 284 285 286 280 281 280 278 279 280 281 281 280 281 280 280 282 283 283 283 284 285 288 286 284 285 284 283 284 288 287 288 288 288 288 289 290 290 289 288 287 288 289 289 289
294 295 294 291 285 289 286 287 290 288 285 288 288 287 286 285 286 287 286 288 288 288 290 288 289 289 285 286 287 289 289 288 290 290 292 290 290 289 288 288 291 289 286 287 285 285 284 282 280 278 279 279 280 281 279 279 278 275 277 282 285 286 287 288 288 288 288 289 285 282 284 291 287 288 287 287 289 290 290 290 290 290 289 288 288 289 290 290
Wind_Speed
18 16 18 18 18 18 18 17 15 15 15 14 13 12 11 11 11 10 10 10 10 11 9 8 8 8 6 4 4 2 2 4 1 1 5 10 6 6 5 3 6 7 5 3 2 3 0 1 2 5 2 3 2 2 1 3 1 1 2 6 1 2 3 7 7 10 2 5 4 5 7 6 3 1 0 2 4 2 0 1 1 2 5 2 3 3 3 2
19 18 18 18 17 17 17 16 16 15 15 14 14 13 12 11 11 10 10 11 11 10 8 7 7 9 6 2 3 2 4 2 1 3 17 2 6 7 7 6 6 8 4 3 6 4 5 1 0 2 3 2 2 0 0 0 1 4 2 3 6 5 3 9 6 6 4 1 5 5 4 4 4 7 3 2 1 0 1 2 1 2 3 3 3 2 5 8
19 19 17 16 17 15 15 15 15 15 15 15 14 14 13 11 11 10 10 10 10 9 8 8 8 8 6 4 4 5 2 3 2 13 12 13 8 8 9 7 6 8 3 2 4 7 7 8 6 4 3 3 6 2 2 0 2 1 4 2 3 9 2 4 3 8 1 7 7 6 3 2 1 3 1 2 2 1 6 4 1 3 7 8 1 4 8 9
19 19 17 17 17 17 17 17 16 16 15 15 15 14 13 12 10 10 9 10 9 9 8 7 7 6 4 3 5 2 5 2 3 4 1 5 14 13 10 9 7 5 3 2 4 5 4 7 5 3 1 4 2 1 2 1 1 1 2 4 2 6 3 2 6 3 4 3 7 6 2 2 2 4 3 4 4 3 7 8 8 11 11 9 6 9 10 10
19 18 17 17 16 18 17 17 17 15 16 15 15 14 11 11 10 10 9 10 10 9 9 8 5 7 5 4 5 6 2 4 5 2 5 6 9 11 10 9 8 4 2 6 8 5 5 6 3 3 2 1 1 1 0 1 1 4 0 0 1 2 1 0 5 2 5 1 10 7 9 6 3 1 3 8 6 6 8 7 10 8 6 11 11 11 12 12
19 19 18 18 19 19 17 17 16 17 18 17 16 14 12 11 10 10 10 10 9 10 9 9 9 9 7 7 6 6 4 3 1 3 9 5 4 6 8 8 7 6 8 3 3 4 7 1 4 2 1 2 3 6 1 1 1 3 1 1 3 1 1 0 1 4 5 4 7 8 4 5 5 2 1 6 9 4 5 0 4 6 5 5 8 12 13 12
19 19 19 18 18 18 17 17 17 18 18 18 16 15 13 12 11 10 10 10 9 10 10 11 11 11 10 9 4 5 6 4 2 2 6 5 4 4 5 7 8 7 4 4 4 4 2 4 3 3 4 3 1 2 1 1 2 4 4 1 1 1 2 1 0 2 1 9 6 3 3 4 5 4 1 3 7 2 2 1 2 1 5 9 12 14 16 19
19 18 18 18 16 17 17 17 17 18 19 18 17 15 12 12 12 11 10 10 11 10 11 10 10 9 11 4 5 2 2 6 1 2 3 4 7 5 5 5 4 4 4 7 7 4 5 7 7 3 3 6 3 5 1 4 2 2 1 1 1 0 1 2 1 4 1 1 1 4 6 0 4 2 2 7 9 6 3 3 4 6 6 6 9 13 13 14
19 19 18 18 17 15 16 17 18 18 17 17 17 15 13 12 12 11 11 10 11 10 10 9 9 9 8 2 4 3 8 2 3 1 2 5 5 3 3 2 1 5 3 3 1 7 8 4 2 5 4 1 1 5 1 6 3 2 1 4 1 1 1 1 6 3 3 2 2 6 2 1 2 1 3 10 5 2 1 4 5 5 6 8 10 13 13 14
20 19 18 17 18 16 16 16 17 18 17 17 16 15 14 12 10 10 9 9 9 9 8 8 8 8 4 3 3 8 2 4 2 1 5 6 5 4 4 1 4 5 5 1 3 5 4 5 8 5 8 4 2 2 1 1 2 4 5 3 5 1 0 3 3 1 0 2 1 4 2 2 1 2 6 1 1 4 3 4 2 6 8 8 8 9 9 11
19 18 17 17 16 16 16 16 15 18 17 16 16 15 13 11 10 9 9 8 8 8 8 7 5 4 3 3 8 11 3 6 2 2 6 6 7 5 3 3 3 4 4 1 3 5 2 7 4 5 1 4 4 0 1 1 5 6 10 6 7 3 4 1 4 2 0 1 1 4 2 0 1 1 7 2 5 2 6 3 3 3 6 7 8 8 8 8
18 17 19 17 16 16 16 15 15 15 16 15 15 14 13 11 9 9 7 6 5 5 7 4 5 2 3 4 9 4 4 2 3 3 5 5 4 3 4 4 4 4 6 5 4 3 4 6 6 2 2 3 2 2 1 2 3 4 2 4 2 2 2 5 2 1 1 0 0 1 3 1 0 7 5 3 4 2 3 4 3 5 5 6 5 6 7 9
19 20 19 18 17 17 16 16 15 15 16 14 13 13 11 10 9 8 6 5 4 6 5 5 2 1 3 3 6 5 2 3 4 6 5 2 4 3 3 1 2 2 2 4 4 4 3 8 5 6 0 4 4 2 4 6 2 3 7 4 3 1 1 1 2 2 2 0 1 1 3 6 9 11 2 2 5 2 1 3 5 5 5 6 6 7 7 6
20 19 18 19 19 17 17 18 17 17 15 15 13 13 11 9 10 8 6 5 5 6 5 4 2 1 2 3 3 2 2 3 5 4 3 1 4 1 2 4 3 2 2 2 2 3 5 1 6 7 2 5 3 1 5 2 4 6 1 5 2 3 4 2 1 2 5 1 2 1 3 6 6 5 2 3 1 0 2 4 5 4 5 6 6 7 8 9
20 19 19 18 18 17 18 19 17 17 16 14 14 13 11 11 10 8 7 5 5 7 6 1 1 3 1 3 2 4 6 4 4 2 3 5 3 2 0 2 5 4 3 5 3 1 3 6 7 3 1 2 4 4 3 3 4 3 6 2 1 5 3 4 2 2 5 0 2 3 2 8 8 7 4 3 2 3 5 5 6 5 5 6 6 8 8 10
21 19 19 18 18 18 18 19 17 16 16 16 14 13 12 11 9 7 8 6 8 7 2 1 1 3 5 1 1 3 2 3 4 1 1 3 4 2 3 5 2 3 2 3 2 3 4 6 7 3 3 3 6 7 4 4 2 5 3 1 3 1 3 2 0 1 3 1 3 2 5 3 4 3 1 2 6 3 1 5 6 7 7 6 7 7 8 9
21 20 19 18 18 18 18 19 17 17 17 14 14 12 11 10 8 8 7 7 3 2 1 2 2 1 2 1 2 1 2 1 1 1 1 1 2 6 6 3 1 4 4 2 3 3 6 6 2 2 4 5 3 6 7 1 1 2 3 2 3 5 3 2 2 1 3 1 4 1 2 6 3 6 6 3 0 1 3 5 6 6 7 7 6 6 7 8
20 20 19 18 17 18 17 18 17 18 16 15 13 13 9 11 11 10 7 4 1 2 1 1 2 3 7 1 2 3 1 2 2 3 3 1 4 5 4 3 1 5 4 4 3 2 2 2 2 5 2 2 3 4 8 9 10 9 5 2 0 0 1 2 2 1 1 2 3 0 4 10 11 9 9 5 0 1 6 6 6 8 8 7 6 7 8 8
21 20 19 19 18 18 18 17 19 18 17 16 14 14 13 10 4 2 5 1 3 3 2 4 5 5 3 8 1 3 1 2 3 3 2 3 2 3 4 3 5 7 3 3 1 3 2 4 4 4 6 3 6 7 9 6 5 8 8 6 5 5 4 3 4 2 0 1 3 3 7 6 7 10 11 5 1 2 7 5 7 9 9 9 8 8 8 9
20 19 18 17 18 18 19 20 19 21 20 13 10 7 3 4 2 2 1 2 0 3 1 10 4 2 1 4 4 0 0 1 5 3 1 1 3 2 4 1 2 5 5 5 1 2 1 6 7 9 9 10 9 5 3 4 6 6 4 5 4 4 1 3 2 2 0 1 4 4 6 6 11 11 10 11 3 5 7 10 10 9 9 9 8 9 9 9
20 19 18 18 18 19 20 19 19 18 21 7 8 6 6 10 12 4 2 2 1 1 3 4 4 2 0 1 0 4 6 1 2 1 1 1 1 7 1 2 2 3 1 1 5 1 3 5 8 6 6 8 7 8 9 9 5 7 6 5 2 1 2 1 0 3 4 1 2 2 4 11 12 10 10 7 2 11 11 11 11 12 11 9 8 9 10 10
21 20 19 19 18 20 20 19 19 17 11 5 2 2 0 3 1 2 6 3 1 0 1 1 2 2 1 3 3 1 4 3 3 1 1 2 2 6 2 4 4 8 0 2 3 2 2 9 5 5 4 9 6 5 4 7 6 4 6 4 3 5 2 2 1 2 4 1 5 3 3 10 12 10 10 7 10 7 6 8 8 7 10 9 7 8 8 6
22 21 19 20 19 21 20 18 17 15 6 5 3 1 2 1 2 3 4 4 3 0 1 2 5 1 1 2 1 1 1 3 5 2 2 1 2 2 5 4 5 4 2 3 9 4 3 5 3 3 7 10 3 4 9 8 7 6 5 4 6 3 4 2 2 1 4 2 2 1 4 10 9 7 11 12 9 6 4 6 10 7 11 14 10 5 7 9
22 21 20 19 20 21 19 18 16 9 3 5 1 5 2 2 1 1 3 3 4 1 1 1 2 2 4 4 3 4 4 2 4 7 2 4 7 2 5 4 5 4 7 5 6 9 6 1 0 6 5 10 7 2 7 6 3 1 3 4 4 2 3 2 3 1 0 1 2 1 4 8 4 7 8 4 3 3 5 5 9 10 10 9 7 8 10 13
23 22 21 20 20 21 19 18 7 4 6 2 3 3 3 2 2 1 5 2 3 0 1 1 3 2 2 1 1 3 1 2 1 1 1 5 4 4 2 1 4 5 5 3 4 4 2 1 3 6 4 3 6 3 4 8 2 0 4 6 5 5 7 0 2 4 3 1 5 2 3 4 4 7 10 9 8 7 2 3 9 8 5 4 7 10 8 9
22 23 23 21 21 20 20 8 4 6 8 6 3 2 3 2 2 1 7 3 3 2 2 5 2 3 3 1 2 2 4 3 1 2 2 2 3 4 2 1 1 7 3 5 6 3 3 0 2 6 7 5 6 5 5 6 5 3 5 5 4 8 8 7 5 3 1 2 2 2 5 6 6 5 5 4 8 12 7 4 11 7 6 5 7 7 8 7
23 23 24 22 22 23 11 4 6 9 6 4 4 3 3 2 0 1 4 4 3 4 6 1 2 1 2 1 4 3 6 4 0 2 2 3 2 1 6 4 3 4 2 2 2 3 2 1 4 4 5 5 5 5 4 8 8 5 1 5 8 9 9 6 6 2 1 1 1 4 3 2 6 9 5 6 6 10 10 10 8 2 3 5 6 7 9 8
23 24 24 24 25 16 1 7 11 7 4 1 2 6 3 2 2 2 4 4 2 2 3 2 1 2 1 0 5 3 1 4 5 3 0 2 1 3 3 7 6 8 2 5 9 1 3 4 3 5 2 4 8 4 3 6 6 2 1 3 5 7 6 7 6 5 1 1 4 3 1 1 5 8 4 4 2 4 8 9 8 6 3 5 7 9 10 9
24 24 25 23 22 11 8 8 9 7 2 2 3 6 5 4 2 6 4 2 0 2 3 6 4 2 2 1 2 1 1 4 2 1 2 2 5 2 2 4 6 7 4 2 5 1 2 3 4 5 8 7 2 1 1 5 4 1 5 7 8 8 7 5 4 5 1 2 5 3 2 3 8 7 6 3 1 7 10 9 8 7 8 8 8 7 7 7
25 25 25 25 14 8 2 3 5 1 4 4 5 7 5 2 3 3 3 6 3 2 0 1 2 6 3 9 0 2 2 2 1 0 2 3 2 6 3 3 5 5 2 5 7 3 1 3 3 3 3 2 5 2 0 1 4 10 4 9 7 9 5 4 7 3 3 1 6 3 5 1 5 5 7 3 6 6 3 5 5 6 5 5 4 5 6 5
26 27 26 23 10 6 6 2 3 2 5 7 6 6 4 6 4 4 6 8 3 1 2 1 3 3 10 13 8 2 4 1 0 4 3 0 3 4 3 4 4 6 4 5 4 4 1 1 1 0 3 3 3 5 6 3 6 6 4 5 7 5 6 5 5 6 2 5 4 1 0 0 6 6 5 8 5 5 3 2 2 5 6 6 5 5 5 4
26 25 27 14 11 9 7 6 5 5 6 7 8 6 5 4 2 8 4 1 3 6 6 6 1 5 14 7 5 4 6 3 0 4 9 6 7 9 7 8 6 5 1 4 4 1 2 3 1 3 2 6 4 10 4 1 4 5 7 8 8 1 4 1 2 2 5 6 1 2 1 1 10 10 6 5 11 7 7 6 5 4 7 6 5 5 6 5
27 25 26 13 14 6 3 4 9 7 8 4 6 3 5 6 10 10 2 5 2 5 6 4 7 6 6 6 5 3 1 8 3 1 4 1 7 2 0 3 7 6 8 5 5 3 2 1 1 1 2 3 3 11 2 1 1 5 10 8 7 2 2 3 3 1 6 5 4 1 1 4 5 7 14 18 12 4 7 9 8 6 6 6 6 6 7 6
26 26 13 9 7 3 7 9 8 11 9 3 8 6 5 5 9 8 4 4 1 2 5 3 4 5 13 11 8 9 5 3 5 2 2 5 6 7 5 2 5 2 6 2 7 7 6 3 6 6 3 1 1 2 9 7 9 6 1 7 8 8 6 5 4 5 6 5 2 3 2 7 3 2 0 9 6 4 5 5 4 6 7 7 7 8 8 6
24 15 12 5 3 2 6 8 10 11 9 7 7 11 13 12 9 11 10 6 2 1 3 1 11 9 5 3 0 2 3 3 2 5 3 8 8 7 11 9 3 5 3 10 4 2 6 3 1 2 2 1 6 1 3 6 6 0 2 4 6 7 5 3 4 3 1 0 1 1 6 4 5 3 8 6 7 7 5 6 3 7 4 4 5 5 4 3
19 8 10 7 4 3 5 8 8 10 10 9 11 9 14 13 10 8 8 7 2 5 5 6 3 7 2 3 2 5 3 4 6 4 2 7 4 10 6 4 9 10 10 9 5 3 3 4 2 6 1 2 0 0 1 1 8 4 4 3 3 2 11 7 2 1 1 4 6 2 8 7 8 7 12 1 3 8 1 1 2 5 3 1 3 3 3 3
11 10 7 7 6 5 7 8 8 9 6 9 12 14 14 8 3 5 3 10 5 14 7 11 5 7 8 8 7 7 4 5 4 4 6 2 3 5 5 6 3 6 6 9 1 2 10 3 2 2 2 1 0 1 2 5 1 9 2 7 2 2 5 5 3 2 3 3 7 2 8 6 3 8 4 6 5 7 2 4 4 3 2 4 5 5 5 5
9 7 7 8 7 7 7 8 10 7 5 7 13 13 6 9 1 4 3 8 6 6 6 9 2 7 6 6 6 7 2 6 7 2 6 8 4 6 7 3 5 11 8 3 5 4 7 3 1 1 0 3 1 0 5 2 3 2 3 3 5 2 2 2 5 1 1 2 5 4 3 6 6 8 4 1 5 7 5 4 2 4 4 7 6 6 5 4
5 7 7 7 8 9 8 10 8 9 7 8 11 14 5 5 3 6 8 10 3 6 10 3 5 3 5 9 5 3 7 8 7 6 7 5 6 5 15 8 4 2 6 6 3 2 1 5 1 1 2 1 2 2 9 2 4 2 1 3 0 2 1 4 6 3 5 4 2 7 3 7 8 7 7 6 8 9 5 4 7 7 8 7 7 6 6 6
9 5 4 7 9 9 7 11 9 5 7 15 15 11 2 5 2 2 7 14 4 7 4 6 2 6 3 4 8 9 5 4 12 8 4 2 7 2 7 4 8 6 8 1 3 3 4 1 4 1 2 2 3 4 9 11 9 2 2 2 0 2 2 4 2 3 4 5 5 2 5 6 7 8 8 12 8 8 6 7 5 7 7 7 7 7 5 5
3 4 4 8 11 9 10 9 9 11 12 11 10 4 1 4 2 1 7 4 4 3 4 6 7 7 7 6 2 1 4 5 6 7 4 3 9 5 8 11 9 10 4 2 5 3 4 2 7 3 2 4 5 1 1 7 5 9 11 11 12 9 5 4 6 3 2 3 4 3 9 6 10 4 11 10 8 6 6 6 8 6 7 7 7 7 5 4
7 6 6 12 13 13 14 12 7 5 5 14 12 4 2 3 6 6 3 1 5 3 2 6 1 5 5 6 8 8 6 4 3 4 5 8 8 5 2 7 7 14 13 10 10 2 5 4 9 5 6 5 1 1 1 1 1 2 4 8 7 3 6 5 7 5 3 0 4 2 1 12 7 4 6 5 3 4 3 3 6 6 7 7 9 7 4 6
7 2 7 15 13 13 11 8 6 7 8 4 4 2 2 1 3 3 6 2 3 1 2 2 6 6 3 3 2 6 13 6 11 11 6 7 3 5 5 9 10 12 8 3 5 3 5 5 5 2 2 3 2 1 1 0 0 2 5 1 5 9 6 6 3 6 8 2 2 1 1 10 3 1 4 4 4 6 6 5 7 6 6 6 7 5 5 6
4 4 5 9 15 12 12 12 15 14 13 1 1 1 3 1 4 5 5 5 5 3 5 4 2 1 5 2 5 9 7 4 4 6 3 1 3 0 8 9 18 9 12 11 13 10 5 4 9 4 3 2 3 2 1 1 1 4 3 4 2 4 6 3 6 1 2 9 8 8 6 10 1 2 1 1 2 5 6 6 6 3 2 2 3 3 3 4
5 2 2 7 8 8 14 10 15 16 14 5 5 2 3 0 2 3 5 6 1 3 5 2 4 5 3 2 3 2 8 9 3 7 2 0 3 1 4 10 11 9 2 1 4 9 6 6 10 8 10 9 6 7 10 12 13 3 0 3 7 10 10 6 4 1 4 3 6 5 8 8 1 2 1 1 1 4 3 4 3 5 4 2 3 3 3 6
2 6 1 8 6 5 4 4 1 9 11 9 7 5 1 1 0 2 3 1 1 1 1 5 2 5 4 7 4 6 8 4 2 4 8 5 2 1 2 6 11 6 4 7 7 10 3 1 7 12 15 15 15 14 2 10 7 6 9 13 11 8 7 5 5 5 11 5 7 9 10 13 3 3 4 6 4 6 4 3 6 6 6 6 3 3 3 3
2 3 4 10 6 8 8 4 2 5 13 11 9 5 7 4 3 0 2 3 4 4 1 1 5 8 4 9 7 7 10 10 1 4 7 8 1 1 3 6 5 3 5 5 8 7 3 4 9 9 13 14 13 5 5 13 12 13 12 10 11 11 11 11 11 13 6 12 6 9 14 13 18 6 8 8 6 5 6 6 6 5 6 6 8 5 3 1
2 0 1 2 2 10 14 13 13 9 3 10 4 2 7 6 4 5 1 1 0 1 5 1 4 8 15 14 7 5 4 4 4 5 1 0 4 0 3 2 3 2 1 1 1 4 6 8 8 6 10 10 2 6 6 6 9 9 12 11 12 13 11 15 15 12 10 11 15 19 17 14 20 9 12 10 10 9 11 14 8 4 3 2 2 4 5 6
1 1 2 3 2 4 9 4 11 4 6 12 3 3 6 8 9 4 4 2 1 3 2 5 8 8 13 11 11 6 10 7 7 5 5 5 7 4 2 2 1 1 2 1 3 1 3 5 6 6 10 10 3 4 3 8 3 3 9 13 15 15 16 18 17 14 13 13 18 22 11 16 20 9 14 12 10 7 2 1 3 4 8 8 4 6 8 9
3 2 2 3 3 3 2 10 12 9 7 10 11 7 6 8 11 1 0 5 4 5 0 4 8 8 10 10 10 9 10 14 13 12 3 8 1 2 5 5 5 1 1 3 3 2 4 4 5 3 4 7 5 3 2 5 7 6 3 7 11 14 16 18 17 17 15 16 18 18 10 12 14 9 10 5 1 2 1 1 6 9 6 7 10 10 9 9
2 1 2 3 2 2 1 8 10 11 6 5 10 7 4 8 10 5 2 1 3 6 4 9 7 6 3 7 8 9 12 14 9 12 15 14 12 10 10 6 9 8 6 3 1 1 4 4 2 3 5 6 3 8 5 3 2 2 4 7 10 13 13 14 15 17 15 17 17 9 10 16 13 12 7 5 4 5 8 10 8 7 8 9 10 11 10 10
0 1 3 0 1 3 3 0 7 7 10 10 8 5 5 7 2 5 1 2 1 4 7 9 9 10 4 8 13 13 6 4 4 4 12 6 2 4 2 5 15 16 9 11 5 8 8 5 5 4 6 8 3 7 7 5 3 2 5 12 20 20 21 20 18 12 12 16 13 11 18 23 3 8 8 9 11 13 13 11 9 9 8 9 11 11 12 12
Wind_Direction
180 180 184 187 188 186 180 178 175 175 176 176 175 178 176 174 176 175 171 161 157 155 151 151 144 123 93 101 107 134 186 135 102 118 210 229 193 183 175 149 147 138 148 89 80 130 25 26 117 347 59 60 310 103 260 61 35 53 83 117 93 201 144 195 175 191 189 122 198 181 203 131 185 227 188 114 42 55 30 200 307 322 260 239 260 245 283 202
178 181 185 185 184 183 180 176 174 174 174 176 177 181 179 172 180 176 172 170 155 150 144 148 128 110 99 112 128 195 149 108 147 242 234 113 188 165 161 161 145 145 118 117 157 164 132 242 47 51 98 77 318 17 342 329 68 88 120 89 195 181 237 163 189 177 126 179 160 178 185 178 202 143 218 123 246 27 152 264 15 288 272 299 291 289 167 153
177 178 177 181 179 177 177 174 170 171 173 177 176 176 173 178 171 178 170 169 156 143 150 140 120 115 127 124 154 235 99 19 2 254 255 207 171 177 160 154 157 157 178 169 201 156 166 186 175 105 1 101 358 160 52 338 56 202 114 162 251 203 232 211 173 181 229 137 125 143 190 159 188 143 157 207 156 60 199 204 294 245 235 217 260 149 155 159
175 178 173 179 179 176 177 173 172 171 174 177 176 174 173 166 173 173 171 171 163 149 132 132 112 89 72 124 165 178 66 44 278 249 254 284 176 165 162 155 157 150 93 43 155 128 109 84 82 101 65 75 306 25 113 299 125 210 87 154 223 183 121 216 189 223 183 132 143 130 116 162 220 197 165 169 113 248 261 233 184 206 219 199 175 161 159 164
173 176 172 177 176 175 174 176 172 173 173 176 171 168 150 163 171 171 169 168 165 145 127 120 114 126 179 166 186 80 88 44 264 280 299 329 154 155 151 148 141 131 138 147 90 68 101 123 104 37 88 169 348 39 53 10 93 94 174 193 167 140 56 235 198 171 142 245 117 135 132 205 106 83 130 154 175 220 212 236 214 216 196 162 171 174 167 171
170 173 172 174 174 171 173 174 173 175 173 170 169 150 150 152 175 170 172 168 162 142 139 138 155 178 170 162 116 103 155 190 264 328 324 16 101 134 142 133 130 125 125 89 108 130 117 63 115 165 20 87 177 148 229 132 332 156 313 65 182 217 133 306 217 221 142 122 134 146 195 111 148 163 232 181 203 227 224 241 239 222 182 163 138 152 172 178
168 170 175 169 163 165 172 175 177 177 170 164 163 153 156 166 173 173 169 168 157 150 156 162 179 176 165 132 113 128 194 266 26 307 347 81 84 104 117 111 115 124 120 103 122 134 117 121 107 181 101 64 309 115 186 131 31 103 177 133 184 225 88 244 235 117 134 130 178 183 121 126 146 176 138 216 236 206 127 253 304 152 117 143 146 173 176 187
165 169 167 159 160 167 174 176 179 176 165 162 163 162 158 170 173 174 170 167 165 159 163 170 183 177 159 138 119 192 203 249 220 311 20 77 80 80 90 65 105 120 136 163 154 135 134 143 168 143 81 151 210 134 210 96 28 104 115 192 171 43 334 0 107 114 128 97 55 119 134 224 178 165 103 246 242 245 266 61 101 117 134 162 165 177 190 196
162 163 161 157 159 168 173 178 175 168 165 165 160 167 169 168 173 171 173 169 165 163 163 174 183 187 195 92 130 135 234 240 191 248 114 98 111 99 353 111 118 142 149 106 177 166 134 225 115 195 217 153 160 98 263 135 291 146 136 114 115 89 359 116 75 74 118 109 120 104 83 348 228 148 241 241 258 280 312 95 125 129 149 181 189 188 186 193
163 164 162 159 160 169 178 171 168 165 164 166 165 166 167 166 166 173 174 171 166 166 170 174 182 169 136 108 81 212 244 138 166 94 123 128 118 117 24 129 120 127 129 205 97 134 176 197 169 188 128 67 122 110 199 147 203 131 101 95 104 309 58 5 135 55 258 115 283 128 145 106 297 112 274 336 243 321 113 118 156 158 181 201 203 199 204 195
163 165 162 161 163 169 171 164 165 165 164 166 169 167 165 160 167 170 175 175 171 170 170 173 180 177 158 130 167 219 171 118 191 123 122 136 114 131 213 182 178 134 121 161 209 187 180 151 158 109 354 214 114 356 100 175 127 95 134 107 44 3 80 358 79 39 109 71 8 129 123 315 342 105 231 220 340 266 158 160 179 209 209 212 217 209 206 218
160 161 164 161 161 165 167 159 159 165 166 164 170 162 160 164 163 168 165 175 173 165 167 165 182 153 77 150 218 205 190 165 141 124 125 137 133 221 229 185 168 153 148 177 235 225 165 157 133 99 178 144 82 130 81 141 73 146 160 114 320 8 60 4 105 314 33 151 124 217 98 292 37 223 252 252 341 60 150 180 202 222 241 247 238 228 219 219
160 164 166 161 157 161 158 151 161 167 163 159 170 165 146 158 162 155 161 151 166 164 156 155 99 109 103 199 239 226 164 134 119 111 76 74 109 69 85 80 143 138 164 154 210 200 170 147 131 88 346 97 149 143 164 78 15 110 48 116 50 27 1 331 308 314 98 265 38 318 228 262 249 243 229 0 349 20 114 231 230 233 255 264 254 237 240 227
164 164 162 159 158 160 156 155 172 172 157 165 165 129 138 163 155 155 146 154 159 156 151 145 120 100 152 238 259 237 194 111 103 93 110 129 93 29 42 29 62 50 14 97 56 127 122 98 96 118 128 99 140 226 78 358 15 132 176 54 137 128 247 311 0 310 122 289 7 133 213 282 272 288 265 321 12 95 260 263 263 269 265 251 248 250 246 242
165 164 163 159 157 155 152 157 172 167 162 162 146 138 150 163 156 148 158 147 170 152 129 108 61 112 102 264 279 284 137 111 125 191 189 135 129 65 15 36 48 41 84 110 132 112 134 121 95 56 88 285 108 85 43 44 15 29 87 264 337 163 265 297 71 358 162 318 22 97 290 243 256 256 302 329 69 141 236 271 285 282 265 256 254 249 253 249
165 164 162 159 155 152 152 152 159 163 157 150 141 146 155 156 153 152 143 149 142 137 142 148 121 117 102 267 181 120 88 133 199 171 273 143 148 155 156 122 121 31 55 37 56 108 42 81 74 175 120 37 69 103 78 73 347 2 99 227 201 117 242 342 303 33 340 131 12 160 211 323 314 264 267 346 75 95 176 288 283 286 279 264 244 242 249 268
164 163 162 160 155 154 154 155 160 159 149 142 140 144 148 143 155 140 116 116 109 100 133 185 110 125 154 286 102 161 206 221 64 72 100 19 139 149 110 76 60 74 61 77 13 51 358 65 283 43 25 126 166 112 101 30 355 241 34 154 210 169 207 233 309 350 3 95 202 17 199 227 240 278 290 299 250 353 307 271 278 274 266 263 266 251 250 248
163 162 161 160 154 151 154 156 161 164 152 141 145 151 148 146 136 117 103 70 83 139 131 108 116 93 257 62 195 218 130 150 152 144 68 312 122 108 99 103 63 104 102 91 354 80 329 67 24 176 34 41 138 128 141 198 178 192 185 112 206 352 218 254 143 229 18 26 185 293 247 259 269 283 280 271 251 257 262 257 268 278 274 269 253 255 251 253
161 161 160 157 151 150 152 155 162 162 151 145 149 146 131 119 105 95 100 52 119 78 105 201 139 155 207 207 231 57 173 167 98 83 155 121 39 105 68 85 102 122 109 88 242 119 348 75 36 87 159 142 193 174 185 198 139 176 165 174 141 140 205 206 244 280 166 172 239 218 230 265 280 282 286 295 187 222 270 285 274 266 262 262 252 249 245 240
161 158 156 152 151 150 151 157 160 162 156 149 150 132 91 104 72 84 348 28 197 174 199 163 155 173 60 5 139 233 328 142 126 340 83 311 124 82 41 93 36 60 117 166 166 107 128 137 175 187 190 183 193 175 161 177 146 115 77 93 167 152 282 283 280 282 321 109 243 244 282 276 271 263 271 279 287 281 279 279 272 263 262 256 250 243 247 242
159 155 152 149 147 149 155 157 161 159 162 157 158 147 164 175 129 186 176 249 204 188 53 156 146 148 131 137 230 155 125 355 69 113 186 118 270 129 218 54 78 116 353 194 142 232 75 147 221 204 191 181 153 121 104 72 61 137 141 144 210 239 142 233 129 352 324 148 290 30 321 275 265 275 266 275 307 267 254 258 263 264 256 254 247 253 245 250
158 156 155 149 147 154 157 159 159 160 134 91 110 183 245 203 204 199 121 151 228 19 44 206 140 59 317 198 256 171 70 94 81 77 330 137 163 155 258 113 144 165 153 115 51 107 153 201 224 204 150 94 91 88 74 118 113 56 144 163 129 254 240 303 326 354 341 90 266 16 334 279 276 268 269 250 247 244 224 218 239 244 265 262 250 247 262 277
156 157 152 151 152 156 157 157 157 140 124 151 201 194 225 238 324 264 105 88 93 306 76 103 169 212 18 309 273 287 96 134 170 245 213 88 127 181 144 117 134 134 103 172 162 132 194 284 246 142 137 114 56 83 96 76 65 111 95 114 200 240 142 243 270 4 1 83 316 330 328 285 284 273 260 254 234 258 261 254 258 235 249 254 255 260 264 265
157 155 154 150 154 157 156 155 130 117 144 170 152 207 238 306 4 45 63 154 167 259 176 228 143 152 178 146 205 126 127 222 118 191 289 123 148 185 109 137 117 129 185 182 158 169 184 267 345 141 150 144 140 128 127 126 144 344 137 136 137 156 232 149 195 119 331 53 63 29 299 296 313 303 299 309 324 298 283 313 277 261 246 265 294 279 243 252
158 155 152 153 155 153 154 141 129 146 130 115 275 244 203 219 68 66 96 39 21 98 351 352 129 231 192 73 27 175 223 66 225 170 200 131 141 99 164 186 117 194 161 162 112 126 245 309 146 114 111 82 114 133 188 130 128 39 227 173 191 180 132 42 98 118 24 319 6 49 310 305 306 283 248 281 340 329 269 313 273 260 275 271 257 254 264 252
157 155 153 154 153 153 140 125 164 130 138 187 214 247 193 202 322 43 95 69 196 250 40 203 152 225 143 257 44 165 115 164 250 223 116 211 155 135 112 67 95 198 140 134 157 168 198 0 141 158 146 141 142 170 205 148 162 132 252 162 157 145 129 132 142 89 111 151 2 6 185 267 327 310 283 323 324 298 297 232 263 282 273 267 248 261 269 263
157 155 153 153 154 149 147 186 137 126 124 259 212 156 179 193 78 55 64 6 344 204 158 270 74 216 53 204 140 129 129 237 135 28 57 332 134 322 135 183 39 28 149 161 61 243 95 77 81 82 108 128 134 192 223 147 127 220 265 128 115 117 135 163 116 110 167 256 272 49 99 190 305 282 274 320 311 299 307 295 276 268 289 278 274 270 268 267
158 156 152 155 155 158 79 122 144 162 192 208 146 148 100 115 103 54 76 101 254 142 137 236 218 354 103 347 71 150 223 162 106 221 281 287 121 18 91 195 158 160 177 113 194 302 122 161 162 138 97 132 187 205 194 151 136 224 232 168 129 140 137 118 95 101 117 53 276 335 345 326 253 267 309 346 332 309 300 280 280 304 243 253 273 273 272 271
158 154 153 151 151 131 130 144 155 174 210 147 144 108 94 89 85 117 124 133 240 81 271 108 268 67 29 45 71 38 88 358 135 195 302 60 27 161 105 195 125 114 32 167 169 203 343 162 205 159 147 192 224 306 268 160 102 256 133 100 99 88 75 91 97 81 6 72 269 215 15 210 278 274 315 334 268 266 253 265 295 287 307 312 310 299 279 276
158 155 152 149 122 102 61 107 169 140 101 120 122 114 82 84 118 125 105 239 127 192 148 230 150 197 131 147 265 7 108 342 73 118 30 142 338 41 28 149 117 103 75 31 76 172 228 326 188 89 188 165 132 36 135 342 128 135 147 86 47 41 31 36 61 84 66 336 253 254 312 156 298 267 228 157 210 205 242 306 278 294 311 317 298 281 295 310
159 155 152 148 144 147 120 155 220 205 118 119 124 105 105 42 145 104 182 225 60 60 32 143 179 88 144 157 173 310 80 4 119 154 102 8 29 51 140 59 45 56 65 25 50 332 33 4 75 301 84 111 105 77 27 68 105 128 106 130 85 5 11 29 348 34 122 266 263 279 270 0 190 291 281 237 278 233 200 237 270 298 310 313 319 321 326 329
159 157 152 149 143 155 145 203 180 146 135 146 125 113 129 121 353 181 209 75 147 200 168 185 264 154 179 163 104 147 137 37 349 163 151 172 148 145 204 153 165 88 237 175 188 0 49 103 199 6 208 119 137 92 349 346 343 90 97 97 113 222 34 297 7 251 211 204 246 349 171 355 240 231 259 290 263 250 226 219 234 252 291 306 307 321 322 322
159 157 154 143 147 169 160 151 137 135 124 145 116 106 131 123 195 212 204 196 250 141 226 108 170 163 145 114 166 159 297 151 209 127 99 29 137 220 288 148 183 139 187 204 115 107 270 278 31 329 35 220 156 125 148 169 298 127 140 142 110 121 102 212 269 291 313 290 269 304 251 262 263 279 245 248 250 209 221 223 229 231 248 275 283 311 322 322
159 153 145 153 149 139 145 136 134 127 121 132 147 86 69 163 218 196 170 222 189 356 79 115 85 77 155 170 188 169 131 315 156 167 124 153 140 172 225 284 141 97 81 147 156 187 137 274 247 149 191 155 90 175 173 153 152 209 18 145 173 143 155 199 190 188 212 200 281 278 84 232 124 248 230 226 261 263 256 247 248 252 252 264 286 287 283 281
148 138 124 128 97 68 132 134 138 131 121 137 142 171 169 200 213 183 195 197 242 63 78 189 128 133 189 21 307 257 126 143 194 118 158 146 190 183 183 197 232 114 140 128 249 99 208 196 288 309 254 344 162 254 116 104 48 315 168 78 99 214 134 134 205 145 167 140 5 227 217 193 180 275 274 248 279 279 274 275 272 268 261 271 292 274 262 267
138 147 136 144 139 165 139 143 133 131 148 152 157 179 196 191 201 174 208 125 121 129 123 53 55 138 143 84 339 208 328 112 210 125 205 194 191 186 190 176 181 193 157 173 168 160 24 223 344 304 45 74 117 277 330 124 171 222 100 196 207 105 99 104 64 21 104 44 256 164 312 285 296 316 275 325 266 266 353 295 231 257 296 320 246 260 257 250
146 135 143 155 148 148 149 138 135 129 151 177 169 191 200 217 183 108 145 160 179 131 130 133 236 145 171 191 175 197 218 84 182 142 204 146 285 198 188 226 163 183 219 128 218 218 154 191 0 51 97 9 168 165 112 42 148 99 184 221 178 142 124 127 191 354 65 183 263 95 228 289 21 279 327 331 279 268 226 231 239 276 302 221 224 221 221 211
136 139 122 150 147 140 133 131 120 120 136 176 197 208 201 209 250 109 116 92 122 143 126 162 227 99 196 133 203 173 229 156 196 201 178 184 230 186 173 170 203 186 192 277 144 224 119 83 9 351 143 275 17 23 50 27 56 140 199 195 112 200 223 316 94 215 163 260 269 297 284 265 198 245 335 304 205 242 240 207 168 211 236 220 220 232 244 257
117 130 148 149 144 138 139 122 113 138 161 183 203 215 196 212 137 152 181 131 127 132 156 222 131 233 138 184 159 151 161 183 168 201 150 240 200 202 184 153 198 206 173 146 121 148 60 139 284 348 135 279 358 104 190 186 342 27 76 84 315 99 151 124 199 173 124 243 63 288 42 246 200 219 197 230 226 221 191 145 196 212 214 218 224 221 216 211
139 140 156 141 149 127 135 121 114 136 184 195 202 217 155 161 221 251 173 135 180 140 213 155 216 124 152 198 158 164 220 167 170 197 210 200 198 306 194 234 162 186 161 172 123 167 158 106 161 279 302 90 176 197 209 162 147 63 106 194 90 28 228 99 20 125 182 175 185 221 311 273 254 213 195 223 221 232 190 183 215 224 228 225 224 217 208 211
142 100 113 153 146 137 126 111 151 182 196 225 227 197 25 175 157 128 205 21 104 353 150 148 160 161 173 115 225 167 150 149 178 186 195 211 192 203 213 189 150 159 128 66 103 185 97 177 163 141 63 227 242 263 196 175 187 168 164 186 175 128 139 161 247 31 97 115 221 134 255 261 270 180 202 216 233 232 244 164 207 238 236 234 242 244 214 223
143 157 157 160 148 156 141 147 196 192 209 208 206 161 189 128 133 172 158 321 102 134 17 104 54 128 145 171 159 164 140 165 191 188 236 194 220 210 294 135 154 146 151 180 178 225 140 121 105 164 208 189 234 345 304 341 14 195 159 220 173 169 102 130 194 230 59 29 99 168 52 267 239 207 218 224 223 234 248 186 225 235 248 249 246 242 223 227
156 87 123 148 162 168 145 156 181 204 217 240 15 15 6 39 121 180 143 239 145 115 112 137 186 127 278 127 160 157 162 186 173 197 193 214 254 196 220 154 138 159 140 103 65 204 93 101 82 342 325 315 330 323 62 146 161 300 272 143 153 197 184 170 160 177 152 158 91 351 267 261 294 161 234 239 263 273 267 219 226 246 238 250 260 246 208 213
84 123 121 168 167 178 153 174 180 205 215 219 87 232 351 185 141 143 186 197 164 182 156 156 19 263 159 151 141 169 187 146 248 202 268 201 207 98 154 165 158 171 162 191 175 192 161 238 126 126 22 347 345 343 333 351 71 217 204 183 159 79 81 139 106 69 108 212 169 143 227 269 278 317 264 240 323 296 277 260 209 229 267 238 259 263 187 166
125 62 61 149 186 182 184 190 192 195 197 178 178 218 200 52 281 185 164 184 71 161 127 204 173 154 104 148 111 91 192 176 160 224 160 157 216 49 248 163 193 178 208 14 42 161 184 164 144 151 168 170 197 194 214 218 210 179 232 143 172 164 147 137 152 115 187 269 144 177 239 252 298 324 329 311 328 293 278 269 248 218 222 238 257 254 198 154
52 125 163 146 186 215 247 45 81 197 185 174 190 221 148 128 351 250 137 119 166 106 93 137 16 97 115 136 137 159 197 244 134 195 184 218 245 331 219 216 184 190 245 127 142 144 165 135 197 183 186 202 204 208 208 78 69 172 212 176 188 187 167 133 104 118 208 196 172 227 227 261 252 290 249 250 198 214 203 223 214 222 243 223 220 264 227 190
353 96 166 155 160 227 202 169 145 160 201 180 193 161 190 175 167 45 259 159 220 155 79 92 167 149 207 152 168 182 193 189 37 114 198 183 259 228 355 168 223 261 142 127 164 102 85 175 215 204 217 214 212 183 183 159 173 199 169 185 181 169 175 160 172 209 159 94 247 241 233 242 245 203 244 241 245 237 234 219 213 232 227 221 194 183 311 299
113 278 52 282 145 187 186 203 198 182 145 168 226 152 189 156 170 159 21 296 120 243 132 339 195 181 166 173 143 159 176 185 161 210 128 125 102 334 78 9 162 318 2 137 171 130 149 197 223 179 234 236 188 152 165 154 181 182 181 168 165 178 163 184 208 213 120 194 220 235 220 226 250 169 214 214 209 207 199 206 210 176 154 250 248 156 188 217
43 310 285 337 172 317 214 174 158 100 144 178 203 153 188 177 190 188 157 134 134 228 146 159 197 197 176 166 156 158 163 161 236 221 171 172 165 129 92 36 254 353 108 95 142 209 138 230 208 175 216 238 196 146 184 163 152 127 180 177 179 169 183 196 211 205 183 213 223 241 224 221 241 189 206 215 214 208 230 74 99 156 202 191 209 204 203 211
169 133 269 17 39 355 126 136 169 159 179 182 191 209 178 194 190 189 305 137 159 218 188 166 187 184 171 170 167 166 191 192 184 194 193 130 164 143 188 181 158 27 122 152 163 266 156 264 116 117 200 254 224 97 154 187 154 189 203 174 173 181 190 201 208 217 212 233 237 241 257 275 257 183 218 223 156 109 346 282 200 214 195 180 196 210 212 210
39 60 120 129 143 248 310 142 159 177 170 188 205 198 170 198 199 173 176 183 166 175 171 194 155 120 150 175 196 198 192 196 193 185 167 156 179 200 157 236 151 151 170 142 139 196 156 242 46 102 177 261 187 171 191 87 73 118 130 158 179 182 198 212 211 214 196 213 233 247 268 256 261 136 197 194 205 190 209 223 226 227 208 201 205 210 210 211
35 191 125 219 169 189 169 307 156 150 210 203 197 180 193 205 180 157 135 263 159 165 168 139 156 132 171 176 206 211 195 163 138 159 183 171 87 149 148 165 163 158 171 185 174 157 178 148 155 152 179 235 267 168 135 115 89 299 227 197 193 197 202 207 216 217 206 203 212 208 229 238 188 168 153 206 196 219 223 218 225 238 230 206 210 213 212 214